Weather History for Chico, CA

Change the Weather History Date:

Sunday, September 15, 2013

  Actual Average (KOVE) Record (KOVE)
Temperature  
Mean Temperature 73 °F -  
Max Temperature 86 °F 86 °F 106 °F (1971)
Min Temperature 60 °F 53 °F 42 °F (1988)
Cooling Degree Days 8    
Growing Degree Days 23 (Base 50)    
Moisture  
Dew Point 50 °F    
Average Humidity 48    
Maximum Humidity 72    
Minimum Humidity 20    
Precipitation  
Precipitation 0.00 in - - ()
Sea Level Pressure  
Sea Level Pressure 29.75 in    
Wind  
Wind Speed 9 mph (SE)    
Max Wind Speed 23 mph    
Max Gust Speed -    
Visibility 10 miles    
Events      
Averages and records for this station are not official NWS values.
T = Trace of Precipitation, MM = Missing Value Source: NWS Daily Summary

Daily Weather History Graph

Daily Weather History Graph

Search for Another Location

Airport:

Trip Planner

Search our weather history database for the weather conditions in past years. The results will help you decide how hot, cold, wet, or windy it might be!

Date:

Astronomy

Sep. 15, 2013 Rise Set
Actual Time 6:48 AM PDT 7:15 PM PDT
Civil Twilight 6:21 AM PDT 7:42 PM PDT
Nautical Twilight 5:49 AM PDT 8:14 PM PDT
Astronomical Twilight 5:17 AM PDT 8:46 PM PDT
Moon 4:46 PM PDT (9/15) 2:33 AM PDT (9/15)
Length of Visible Light 13h 20m
Length of Day
12h 26m
Waxing Gibbous, 83% of the Moon is Illuminated
Sep 15
Waxing Gibbous
Sep 19
Full
Sep 26
Last Quarter
Oct 4
New
Oct 11
First Quarter

Hourly Weather History & Observations

Time (PDT) Temp. Dew Point Humidity Pressure Visibility Wind Dir Wind Speed Gust Speed Precip Events Conditions
12:15 AM 75.2 °F 57.2 °F 53% 29.69 in 10.0 mi South 9.2 mph - N/A   Clear
12:35 AM 73.4 °F 57.2 °F 57% 29.69 in 10.0 mi SSE 8.1 mph - N/A   Clear
12:55 AM 73.4 °F 57.2 °F 57% 29.70 in 10.0 mi SSE 6.9 mph - N/A   Clear
1:15 AM 71.6 °F 57.2 °F 60% 29.69 in 10.0 mi SSE 5.8 mph - N/A   Clear
1:35 AM 71.6 °F 57.2 °F 60% 29.70 in 10.0 mi South 6.9 mph - N/A   Clear
1:55 AM 71.6 °F 55.4 °F 57% 29.71 in 10.0 mi South 9.2 mph - N/A   Clear
2:15 AM 69.8 °F 55.4 °F 60% 29.71 in 10.0 mi South 8.1 mph - N/A   Clear
2:35 AM 68.0 °F 55.4 °F 64% 29.71 in 10.0 mi South 6.9 mph - N/A   Clear
2:55 AM 68.0 °F 55.4 °F 64% 29.71 in 10.0 mi South 6.9 mph - N/A   Clear
3:15 AM 66.2 °F 53.6 °F 64% 29.71 in 10.0 mi SSE 6.9 mph - N/A   Clear
3:35 AM 66.2 °F 55.4 °F 68% 29.71 in 10.0 mi SE 6.9 mph - N/A   Clear
3:55 AM 66.2 °F 53.6 °F 64% 29.72 in 10.0 mi SSE 4.6 mph - N/A   Clear
4:15 AM 64.4 °F 53.6 °F 68% 29.73 in 10.0 mi South 5.8 mph - N/A   Clear
4:35 AM 64.4 °F 53.6 °F 68% 29.73 in 10.0 mi SE 11.5 mph - N/A   Clear
4:55 AM 64.4 °F 53.6 °F 68% 29.73 in 10.0 mi SE 9.2 mph - N/A   Clear
5:15 AM 62.6 °F 53.6 °F 72% 29.73 in 10.0 mi SE 9.2 mph - N/A   Clear
5:35 AM 62.6 °F 53.6 °F 72% 29.74 in 10.0 mi SE 6.9 mph - N/A   Partly Cloudy
5:55 AM 62.6 °F 51.8 °F 68% 29.75 in 10.0 mi SE 11.5 mph - N/A   Clear
6:15 AM 62.6 °F 51.8 °F 68% 29.75 in 10.0 mi SE 8.1 mph - N/A   Clear
6:35 AM 62.6 °F 51.8 °F 68% 29.76 in 10.0 mi SE 9.2 mph - N/A   Clear
6:55 AM 60.8 °F 51.8 °F 72% 29.76 in 10.0 mi SSE 9.2 mph - N/A   Clear
7:15 AM 60.8 °F 51.8 °F 72% 29.77 in 10.0 mi SSE 4.6 mph - N/A   Clear
7:35 AM 60.8 °F 51.8 °F 72% 29.77 in 10.0 mi South 5.8 mph - N/A   Clear
8:55 AM 64.4 °F 51.8 °F 64% 29.79 in 25.0 mi SSE 13.8 mph - N/A   Clear
9:59 AM 66.2 °F 51.8 °F 60% 29.79 in 25.0 mi SSE 17.3 mph - N/A   Partly Cloudy
10:58 AM 69.8 °F 51.8 °F 53% 29.82 in 25.0 mi South 13.8 mph - N/A   Clear
11:58 AM 75.2 °F 50.0 °F 41% 29.82 in 25.0 mi SE 13.8 mph - N/A   Clear
12:59 PM 80.6 °F 46.4 °F 30% 29.81 in 25.0 mi SSE 13.8 mph - N/A   Clear
1:50 PM 82.4 °F 46.4 °F 28% 29.79 in 25.0 mi SSE 17.3 mph - N/A   Partly Cloudy
2:47 PM 86.0 °F 44.6 °F 23% 29.77 in 25.0 mi SSE 17.3 mph - N/A   Partly Cloudy
3:55 PM 86.0 °F 44.6 °F 23% 29.75 in 25.0 mi SE 23.0 mph - N/A   Partly Cloudy
4:47 PM 86.0 °F 41.0 °F 20% 29.75 in 40.0 mi South 23.0 mph - N/A   Partly Cloudy
5:47 PM 86.0 °F 44.6 °F 23% 29.74 in 40.0 mi SE 13.8 mph - N/A   Partly Cloudy
6:47 PM 84.2 °F 41.0 °F 22% 29.74 in 40.0 mi SE 13.8 mph - N/A   Partly Cloudy
7:55 PM 80.6 °F 44.6 °F 28% 29.74 in 10.0 mi ESE 8.1 mph - N/A   Clear
8:15 PM 80.6 °F 41.0 °F 24% 29.74 in 10.0 mi ESE 9.2 mph - N/A   Clear
8:35 PM 80.6 °F 41.0 °F 24% 29.75 in 10.0 mi ESE 6.9 mph - N/A   Clear
8:55 PM 80.6 °F 41.0 °F 24% 29.76 in 10.0 mi ESE 9.2 mph - N/A   Clear
9:15 PM 80.6 °F 41.0 °F 24% 29.76 in 10.0 mi ESE 6.9 mph - N/A   Clear
9:35 PM 78.8 °F 41.0 °F 26% 29.76 in 10.0 mi ESE 9.2 mph - N/A   Clear
9:55 PM 78.8 °F 42.8 °F 28% 29.77 in 10.0 mi ESE 8.1 mph - N/A   Clear
10:15 PM 78.8 °F 44.6 °F 30% 29.77 in 10.0 mi ESE 8.1 mph - N/A   Clear
10:35 PM 77.0 °F 46.4 °F 34% 29.78 in 10.0 mi SE 6.9 mph - N/A   Clear
10:55 PM 75.2 °F 44.6 °F 34% 29.78 in 10.0 mi SE 10.4 mph - N/A   Clear
11:15 PM 77.0 °F 46.4 °F 34% 29.79 in 10.0 mi SE 12.7 mph - N/A   Clear
11:35 PM 75.2 °F 46.4 °F 36% 29.79 in 10.0 mi SE 10.4 mph - N/A   Clear
11:55 PM 75.2 °F 46.4 °F 36% 29.79 in 10.0 mi SE 10.4 mph - N/A   Clear